Погода в Баоцзи

Китай     34°22′49″N   107°09′23″E
темп.,
°C
ветер,
м/с
пор.,
м/с
влажн.,
%
обл.,
%
осадки,
мм/ч
давл.,
гПа
погр.,
м
17 мая, пн
пн1723:00+11юв1181100 0.0 101711
02:00+11с1181100 0.0 101711
05:00+10с1181100 0.0 101711
08:00+13зсз1174100 0.0 1018182
11:00+19юз015718 0.0 1017729
14:00+22юв324449 0.0 10141330
17:00+22юв334497 0.0 10111226
20:00+16в226160 0.0 101211
18 мая, вт
вт1823:00+14ссв1159100 0.0 101411
02:00+14сз1160100 0.0 101411
05:00+12с1164100 0.0 101310
08:00+16з115911 0.0 1014178
11:00+21юв114639 0.0 1012686
14:00+24вюв3437100 0.0 10081097
17:00+24юв3547100 0.0 1006735
20:00+18св1161100 0.0 100711
19 мая, ср
ср1923:00+17с1159100 0.0 100911
02:00+16сз1154100 0.0 100811
05:00+15сз3354100 0.0 100929
08:00+18зсз235458 0.0 1010189
11:00+24сз463999 0.0 10091612
14:00+26сз3434100 0.0 10062247
17:00+25зсз1240100 0.0 10041616
20:00+20з1151100 0.0 100611
20 мая, чт
чт2023:00+18зсз115496 0.0 100711
02:00+17зсз2257100 0.0 100612
05:00+15сз22630 0.0 100718
08:00+19зсз23607 0.0 1008194
11:00+25зсз22430 0.0 1006628
14:00+29ссв212546 0.0 10021201
17:00+29юв222896 0.0 10001246
20:00+22вюв11525 0.0 100211
21 мая, пт
пт2123:00+19всв115785 0.0 100411
02:00+17сз006630 0.0 100411
05:00+16ссз01725 0.0 100311
08:00+20ссв00665 0.0 1004164
11:00+26вюв2248100 0.0 1002817
14:00+29в4438100 0.0 9981323
17:00+28в5747100 0.0 998716
20:00+21сз4865100 0.0 1001309